Home   Weather   Kunming   Past weeks

Flag for China Past Weather in Kunming, Yunnan, China — Yesterday and Last 2 Weeks

Now
52 °F

Clear.


Feels Like: 48 °F
Forecast: 37 / 62 °F
Wind: 10 mph from Southwest

Location: Kunming Airport

Current Time: Dec 11, 2016 at 10:07:10 pm

Latest Report: Dec 11, 2016 at 9:00 pm


Visibility: 10 mi

Pressure: 29.98 "Hg (23.83 "Hg at 1909m altitude)

Humidity: 47%

Dew Point: 32 °F

Location of KunmingLocation

Past Weather in Kunming — Graph

°F

Kunming Temperature Yesterday

Maximum temperature yesterday: 63 °F (at 3:00 pm)
Minimum temperature yesterday: 37 °F (at 8:00 am)
Average temperature yesterday: 48 °F

High & Low Weather Summary for the Past Weeks

 TemperatureHumidityPressure
High64 °F (Dec 5, 2:00 pm)100% (Nov 27, 7:00 am)30.51 "Hg (Nov 27, 7:00 am)
Low36 °F (Nov 27, 7:00 am)26% (Dec 5, 3:00 pm)29.95 "Hg (Dec 11, 4:00 pm)
Average48 °F82%30.27 "Hg
* Reported Nov 26 9:00 pm — Dec 11 9:00 pm, Kunming, Weather by CustomWeather, © 2016

Note: Actual official high and low records may vary slightly from our data, if they occured in-between our weather recording intervals... More about our weather records

Advertising

Kunming Weather History for the Previous 24 Hours

Scroll right to see more
 ConditionsComfort  
Time TempWeatherWind HumidityBarometerVisibility
9:00 pm
Sun, Dec 11
52 °FClear.10 mph47%29.98 "Hg10 mi
8:00 pm54 °FClear.13 mph41%29.98 "Hg10 mi
7:00 pm57 °FClear.20 mph33%29.95 "Hg10 mi
6:00 pm61 °FSunny.22 mph29%29.95 "Hg10 mi
5:00 pm63 °FSunny.24 mph27%29.95 "Hg10 mi
4:00 pm64 °FSunny.24 mph26%29.95 "Hg10 mi
3:00 pm64 °FSunny.22 mph30%29.98 "Hg10 mi
2:00 pm61 °FSunny.22 mph39%30.01 "Hg10 mi
1:00 pm59 °FSunny.20 mph48%30.07 "Hg10 mi
12:00 pm55 °FPassing clouds.20 mph59%30.09 "HgN/A
11:00 am52 °FScattered clouds.15 mph72%30.12 "HgN/A
10:00 am48 °FBroken clouds.17 mph82%30.12 "Hg5 mi
9:00 am46 °FBroken clouds.13 mph87%30.12 "Hg5 mi
8:00 am45 °FFog.10 mph93%30.09 "Hg3 mi
7:00 am45 °FFog.8 mph93%30.07 "Hg2 mi
6:00 am43 °FFog.8 mph93%30.07 "Hg2 mi
5:00 am43 °FFog.6 mph93%30.07 "Hg2 mi
4:00 am43 °FClear.8 mph87%30.07 "Hg4 mi
3:00 am45 °FClear.10 mph87%30.09 "Hg4 mi
2:00 am46 °FClear.13 mph87%30.09 "Hg4 mi
1:00 am41 °FClear.8 mph93%30.12 "Hg4 mi
12:00 am43 °FClear.6 mph87%30.12 "Hg4 mi
11:00 pm
Sat, Dec 10
43 °FClear.6 mph93%30.12 "Hg4 mi
10:00 pm46 °FClear.10 mph87%30.12 "Hg4 mi
Weather by CustomWeather, © 2016

See weather overviewHow to use our weather pages